EW9467 Weather Reports


time (UTC)temp
C
wind
direction
speed
KPH
gust
KPH
rain 1hr
cm
rain 24hr
cm
rain mn
cm
humidity
%
barometer
mb
20260504202731 26 198 1.6 6.4 0.00 0.00 0.00 33 1012.5
20260504202230 26 245 1.6 8.0 0.00 0.00 0.00 33 1012.5
20260504201730 25 283 1.6 8.0 0.00 0.00 0.00 32 1012.6
20260504200732 25 257 3.2 6.4 0.00 0.00 0.00 35 1012.7
20260504200229 25 229 1.6 6.4 0.00 0.00 0.00 34 1012.8
20260504195728 25 213 0.0 4.8 0.00 0.00 0.00 36 1012.8
20260504195230 25 128 1.6 8.0 0.00 0.00 0.00 34 1012.8
20260504194228 25 227 3.2 14.5 0.00 0.00 0.00 36 1012.9
20260504193728 25 258 0.0 8.0 0.00 0.00 0.00 36 1012.9
20260504193228 25 125 0.0 8.0 0.00 0.00 0.00 35 1013.1
20260504192727 25 129 1.6 6.4 0.00 0.00 0.00 36 1013.2
20260504192228 25 130 1.6 6.4 0.00 0.00 0.00 36 1013.2
20260504191728 25 103 1.6 9.7 0.00 0.00 0.00 38 1013.3
20260504190726 25 213 0.0 4.8 0.00 0.00 0.00 36 1013.5
20260504190227 25 209 0.0 4.8 0.00 0.00 0.00 33 1013.5
20260504185726 25 290 1.6 4.8 0.00 0.00 0.00 36 1013.6
20260504184727 24 283 1.6 6.4 0.00 0.00 0.00 36 1013.7
20260504184226 24 89 1.6 11.3 0.00 0.00 0.00 34 1013.8
20260504183726 24 219 1.6 11.3 0.00 0.00 0.00 33 1013.8
20260504182726 24 316 1.6 4.8 0.00 0.00 0.00 35 1014.0
20260504182226 24 305 1.6 3.2 0.00 0.00 0.00 41 1014.1
20260504181726 24 303 1.6 6.4 0.00 0.00 0.00 34 1014.1
20260504181226 24 99 1.6 8.0 0.00 0.00 0.00 34 1014.2
20260504175724 23 115 0.0 4.8 0.00 0.00 0.00 38 1014.3
20260504175224 23 115 1.6 4.8 0.00 0.00 0.00 37 1014.4
20260504174724 23 167 1.6 9.7 0.00 0.00 0.00 36 1014.5
20260504173723 23 280 1.6 4.8 0.00 0.00 0.00 39 1014.6
20260504173225 23 238 0.0 4.8 0.00 0.00 0.00 42 1014.7
20260504172725 23 272 0.0 11.3 0.00 0.00 0.00 38 1014.8
20260504172223 23 227 1.6 11.3 0.00 0.00 0.00 39 1014.9
20260504171723 23 213 1.6 9.7 0.00 0.00 0.00 41 1014.9
20260504171222 23 227 1.6 4.8 0.00 0.00 0.00 43 1015.0
20260504170722 23 263 1.6 3.2 0.00 0.00 0.00 40 1015.0
20260504160221 22 268 0.0 6.4 0.00 0.00 0.00 42 1015.6
20260504150722 20 288 1.6 9.7 0.00 0.00 0.00 49 1016.3
20260504150215 20 265 0.0 4.8 0.00 0.00 0.00 48 1016.2
20260504141211 17 294 0.0 4.8 0.00 0.00 0.00 55 1016.5
20260504140711 17 241 0.0 3.2 0.00 0.00 0.00 54 1016.5
20260504140212 17 257 0.0 0.0 0.00 0.00 0.00 56 1016.5
20260504130709 13 238 0.0 0.0 0.00 0.00 0.00 76 1016.4
20260504130210 13 238 0.0 0.0 0.00 0.00 0.00 79 1016.4
20260504110706 5 284 0.0 0.0 0.00 0.00 0.00 93 1015.6
20260504100158 5 285 0.0 0.0 0.00 0.00 0.00 93 1015.6
20260504081653 6 285 0.0 0.0 0.00 0.00 0.00 92 1015.7
20260504081152 6 284 0.0 0.0 0.00 0.00 0.00 92 1015.7
20260504080652 6 284 0.0 0.0 0.00 0.00 0.00 92 1015.7
20260504080153 6 285 0.0 0.0 0.00 0.00 0.00 92 1015.7
20260504070147 7 284 0.0 0.0 0.00 0.00 0.00 92 1016.1
20260504060144 7 285 0.0 0.0 0.00 0.00 0.00 91 1016.0
20260504050642 8 285 0.0 0.0 0.00 0.00 0.00 90 1016.4
20260504045640 8 285 0.0 0.0 0.00 0.00 0.00 89 1016.6
20260504045140 8 284 0.0 0.0 0.00 0.00 0.00 89 1016.6
20260504044640 8 285 0.0 0.0 0.00 0.00 0.00 89 1016.6
20260504044140 8 285 0.0 0.0 0.00 0.00 0.00 89 1016.7
20260504043639 8 285 0.0 0.0 0.00 0.00 0.00 89 1016.6
20260504043140 8 284 0.0 0.0 0.00 0.00 0.00 88 1016.5
20260504042639 8 285 0.0 0.0 0.00 0.00 0.00 88 1016.5
20260504042140 8 285 0.0 0.0 0.00 0.00 0.00 88 1016.5
20260504041640 8 285 0.0 0.0 0.00 0.00 0.00 88 1016.5
20260504041137 9 285 0.0 0.0 0.00 0.00 0.00 87 1016.4
20260504040637 9 285 0.0 0.0 0.00 0.00 0.00 87 1016.4
20260504035638 9 284 0.0 0.0 0.00 0.00 0.00 87 1016.4
20260504035136 9 285 0.0 0.0 0.00 0.00 0.00 86 1016.5
20260504034637 9 285 0.0 0.0 0.00 0.00 0.00 86 1016.4
20260504033637 10 284 0.0 0.0 0.00 0.00 0.00 85 1016.6
20260504033137 10 285 0.0 0.0 0.00 0.00 0.00 85 1016.6
20260504032637 10 284 0.0 0.0 0.00 0.00 0.00 85 1016.6
20260504032137 10 284 0.0 0.0 0.00 0.00 0.00 84 1016.6
20260504031635 10 285 0.0 0.0 0.00 0.00 0.00 84 1016.5
20260504031133 10 284 0.0 0.0 0.00 0.00 0.00 83 1016.5
20260504030633 10 284 0.0 0.0 0.00 0.00 0.00 83 1016.4
20260504025634 10 285 0.0 0.0 0.00 0.00 0.00 83 1016.4
20260504025133 10 284 0.0 0.0 0.00 0.00 0.00 82 1016.4
20260504024633 10 284 0.0 0.0 0.00 0.00 0.00 82 1016.4
20260504023634 11 285 0.0 0.0 0.00 0.00 0.00 80 1016.3
20260504023133 11 284 0.0 0.0 0.00 0.00 0.00 80 1016.2
20260504022130 11 285 0.0 0.0 0.00 0.00 0.00 79 1016.1
20260504020631 11 285 0.0 0.0 0.00 0.00 0.00 77 1015.8
20260504020132 12 285 0.0 0.0 0.00 0.00 0.00 76 1015.7
20260504015630 12 284 0.0 0.0 0.00 0.00 0.00 75 1015.7
20260504015128 12 285 0.0 0.0 0.00 0.00 0.00 74 1015.6
20260504014629 12 285 0.0 0.0 0.00 0.00 0.00 72 1015.4
20260504014128 12 284 0.0 0.0 0.00 0.00 0.00 72 1015.3
20260504013629 12 284 0.0 0.0 0.00 0.00 0.00 71 1015.3
20260504013129 13 285 0.0 0.0 0.00 0.00 0.00 71 1015.2
20260504012629 13 284 0.0 0.0 0.00 0.00 0.00 70 1015.1
20260504012128 13 285 0.0 0.0 0.00 0.00 0.00 69 1015.1
20260504011628 13 285 0.0 0.0 0.00 0.00 0.00 69 1015.0
20260504010629 14 284 0.0 0.0 0.00 0.00 0.00 66 1015.0
20260504005628 15 285 0.0 0.0 0.00 0.00 0.00 64 1014.9
20260504005130 15 285 0.0 0.0 0.00 0.00 0.00 62 1014.9
20260504004630 15 284 0.0 0.0 0.00 0.00 0.00 61 1014.8
20260504004128 15 285 0.0 0.0 0.00 0.00 0.00 60 1014.7
20260504003628 16 285 0.0 0.0 0.00 0.00 0.00 58 1014.7
20260504003128 16 284 0.0 0.0 0.00 0.00 0.00 57 1014.6
20260504002127 17 285 0.0 0.0 0.00 0.00 0.00 53 1014.6
20260504001626 17 284 0.0 0.0 0.00 0.00 0.00 52 1014.6
20260504000628 18 285 0.0 0.0 0.00 0.00 0.00 45 1014.5
20260503235127 20 284 0.0 1.6 0.00 0.00 0.00 43 1014.4
20260503234625 20 285 0.0 1.6 0.00 0.00 0.00 43 1014.5
20260503234125 20 284 0.0 1.6 0.00 0.00 0.00 39 1014.5
20260503233626 20 288 0.0 0.0 0.00 0.00 0.00 42 1014.5
20260503233124 20 288 0.0 1.6 0.00 0.00 0.00 41 1014.5
20260503232624 21 267 0.0 1.6 0.00 0.00 0.00 38 1014.5
20260503231624 21 277 1.6 6.4 0.00 0.00 0.00 37 1014.5
20260503231125 21 298 1.6 6.4 0.00 0.00 0.00 35 1014.5
20260503230622 21 267 0.0 3.2 0.00 0.00 0.00 35 1014.6
20260503225622 21 311 0.0 1.6 0.00 0.00 0.00 35 1014.6
20260503225120 21 298 0.0 3.2 0.00 0.00 0.00 35 1014.5
20260503224621 21 248 1.6 4.8 0.00 0.00 0.00 35 1014.6
20260503224122 21 310 1.6 4.8 0.00 0.00 0.00 35 1014.6
20260503223620 22 211 0.0 4.8 0.00 0.00 0.00 35 1014.5
20260503223120 22 248 0.0 4.8 0.00 0.00 0.00 34 1014.5
20260503222120 22 338 0.0 6.4 0.00 0.00 0.00 37 1014.6
20260503221620 22 277 0.0 6.4 0.00 0.00 0.00 35 1014.6
20260503221121 22 275 0.0 3.2 0.00 0.00 0.00 35 1014.7
20260503220620 22 242 0.0 6.4 0.00 0.00 0.00 34 1014.7
20260503215619 22 328 0.0 4.8 0.00 0.00 0.00 34 1014.8
20260503215118 22 329 0.0 3.2 0.00 0.00 0.00 35 1014.9
20260503214618 22 298 0.0 4.8 0.00 0.00 0.00 36 1014.9
20260503214118 22 298 0.0 4.8 0.00 0.00 0.00 34 1014.8
20260503213616 22 44 0.0 6.4 0.00 0.00 0.00 37 1014.8
20260503213116 22 327 0.0 6.4 0.00 0.00 0.00 34 1015.0
20260503212616 22 319 0.0 6.4 0.00 0.00 0.00 39 1015.0
20260503212116 22 317 1.6 4.8 0.00 0.00 0.00 36 1015.0
20260503211616 22 317 1.6 4.8 0.00 0.00 0.00 35 1015.0
20260503211116 22 327 0.0 6.4 0.00 0.00 0.00 35 1015.0
20260503210616 21 319 0.0 6.4 0.00 0.00 0.00 36 1015.1
20260503210115 21 324 1.6 4.8 0.00 0.00 0.00 36 1015.1
20260503205613 21 330 1.6 16.1 0.00 0.00 0.00 36 1015.2
20260503205114 21 309 1.6 16.1 0.00 0.00 0.00 37 1015.2
20260503204613 21 301 0.0 4.8 0.00 0.00 0.00 37 1015.2
20260503204114 21 334 1.6 6.4 0.00 0.00 0.00 35 1015.3
20260503203614 22 313 0.0 6.4 0.00 0.00 0.00 34 1015.3
20260503203113 22 300 0.0 3.2 0.00 0.00 0.00 34 1015.3